Location: Presov
(49.0000°N, 21.2500°E)
Time: 07:11:03
(UTC+02:00)

Transit 2A Rocket - Pass Details

Date: 17 April 2021
Orbit: 594 x 909 km, 66.7° (Epoch: 07 May)

Event Time Altitude Azimuth Distance (km) Brightness Sun altitude
Rises 18:20:37 0° 256° (WSW) 2,904 9.6 10.3°
Reaches altitude 10° 18:23:23 10° 273° (W) 1,968 11.2 9.9°
Maximum altitude 18:26:45 21° 323° (NW) 1,356 7.1 9.3°
Drops below altitude 10° 18:30:06 10° 14° (NNE) 1,938 7.1 8.8°
Sets 18:32:48 0° 31° (NNE) 2,847 7.7 8.4°
